Terminal Aerodrome Forecast
Issued by NWS

Home | Current Version | Previous Version | Graphics & Text | Print | Product List | Glossary On
Versions: 1 2 3 4 5 6 7 8 9 10 11 12 13 14 15
771
FTUS41 KCLE 292334
TAFFDY
TAF
KFDY 292334Z 3000/3024 08006KT P6SM VCSH SCT045 OVC080
      TEMPO 3001/3005 2SM TSRA OVC045CB
     FM300800 04003KT 5SM BR SCT120 BKN200
      TEMPO 3009/3013 3SM BR
     FM301400 06005KT P6SM SCT035 BKN120
     FM301600 10005KT P6SM VCTS BKN045CB=

USA.gov is the U.S. government's official web portal to all federal, state and local government web resources and services.